Home > Weather > Asuncion > Past weeks

Flag for Paraguay Weather for the Past 2 Weeks in Asuncion, Paraguay

Now
81 °F

Clear.


Feels Like: 87 °F
Forecast: 78 / 100 °F
Wind: 6 mph from Northeast

Location: Asuncion / Aeropuerto

Current Time: Feb 8, 2016 at 5:51:16 AM

Latest Report: Feb 8, 2016 at 5:00 AM


Visibility: 10 mi

Pressure: 29.80 "Hg

Humidity: 89%

Dew point: 77 °F

Location of AsuncionLocation

Historic Weather in Asuncion — Graph

°F

Asuncion Temperature Yesterday

Maximum temperature yesterday: 93 °F (at 3:00 PM)
Minimum temperature yesterday: 75 °F (at 2:00 AM)
Average temperature yesterday: 84 °F

High & Low Weather Summary for the Past Weeks

 TemperatureHumidityPressure
High100 °F (Jan 25, 1:00 PM)100% (Jan 26, 9:30 AM)30.01 "Hg (Jan 26, 9:30 AM)
Low70 °F (Feb 3, 11:00 AM)28% (Jan 24, 12:00 PM)29.56 "Hg (Jan 24, 5:00 PM)
Average81 °F78%29.83 "Hg
* Reported Jan 24 5:00 AM — Feb 8 4:00 AM, Asuncion, Weather by CustomWeather, © 2016

Note: Actual official high and low records may vary slightly from our data, if they occured in-between our weather recording intervals... More about our weather records

Advertising

Asuncion Weather History for the Previous 24 Hours

 ConditionsComfort  
Time TempWeatherWind HumidityBarometerVisibility
4:00 AM
Mon, Feb 8
81 °FClear.7 mph89%29.77 "Hg10 mi
3:00 AM79 °FClear.2 mph94%29.80 "Hg10 mi
2:00 AM81 °FClear.No wind89%29.80 "Hg10 mi
1:00 AM81 °FClear.5 mph89%29.80 "Hg10 mi
12:00 AM81 °FClear.5 mph89%29.80 "Hg10 mi
11:00 PM
Sun, Feb 7
82 °FClear.2 mph84%29.77 "Hg10 mi
10:00 PM84 °FClear.2 mph74%29.77 "Hg10 mi
9:00 PM86 °FClear.5 mph70%29.77 "Hg10 mi
8:00 PM88 °FClear.3 mph70%29.74 "Hg10 mi
7:00 PM91 °FPassing clouds.6 mph63%29.74 "HgN/A
6:00 PM93 °FScattered clouds.7 mph56%29.74 "HgN/A
5:00 PM93 °FScattered clouds.7 mph56%29.77 "HgN/A
4:00 PM93 °FScattered clouds.7 mph59%29.77 "HgN/A
3:00 PM93 °FPartly sunny.8 mph59%29.83 "HgN/A
2:00 PM91 °FPartly sunny.8 mph63%29.86 "HgN/A
1:00 PM91 °FPartly sunny.6 mph67%29.89 "HgN/A
12:00 PM90 °FScattered clouds.7 mph67%29.92 "HgN/A
11:00 AM88 °FBroken clouds.7 mph75%29.92 "HgN/A
10:30 AM86 °FBroken clouds.7 mph75%29.92 "HgN/A
10:00 AM84 °FPassing clouds.7 mph84%29.92 "HgN/A
9:30 AM84 °FPassing clouds.7 mph79%29.92 "HgN/A
9:00 AM82 °FSunny.7 mph79%29.92 "Hg10 mi
8:30 AM82 °FSunny.6 mph79%29.92 "Hg10 mi
8:00 AM79 °FSunny.5 mph89%29.92 "Hg10 mi
7:00 AM75 °FSunny.No wind94%29.92 "Hg10 mi
6:00 AM75 °FClear.No wind94%29.89 "Hg10 mi
5:00 AM75 °FClear.2 mph94%29.89 "Hg10 mi
Weather by CustomWeather, © 2016

See weather overviewHow to use our weather pages